This is the latest recevied weather packets stored in our database for station/object N7CEE-2. If no packets are shown the sender has not sent any weather packets the latest 10 day(s).
| Time | Temp. | Humidity | Pressure | Rain* | Wind** | Luminosity | Snow |
|---|---|---|---|---|---|---|---|
| 1777585337 | 31.67° C | 16% | 1008.5 hPa | 0 mm | - | 758 W/m² | - |
| 1777585032 | 32.22° C | 16% | 1008.7 hPa | 0 mm | - | 808 W/m² | - |
| 1777584729 | 31.67° C | 16% | 1008.8 hPa | 0 mm | - | 867 W/m² | - |
| 1777584427 | 31.67° C | 15% | 1008.8 hPa | 0 mm | - | 812 W/m² | - |
| 1777584123 | 31.67° C | 15% | 1008.8 hPa | 0 mm | - | 890 W/m² | - |
| 1777583822 | 31.67° C | 15% | 1008.9 hPa | 0 mm | - | 880 W/m² | - |
| 1777583518 | 32.22° C | 15% | 1009 hPa | 0 mm | - | 899 W/m² | - |
| 1777583211 | 31.67° C | 16% | 1009.1 hPa | 0 mm | - | 849 W/m² | - |
| 1777582906 | 30.56° C | 16% | 1009.3 hPa | 0 mm | - | 850 W/m² | - |
| 1777582605 | 31.11° C | 16% | 1009.3 hPa | 0 mm | - | 840 W/m² | - |
| 1777582299 | 30.56° C | 16% | 1009.6 hPa | 0 mm | - | 871 W/m² | - |
| 1777581997 | 30.56° C | 15% | 1009.6 hPa | 0 mm | - | 922 W/m² | - |
| 1777581692 | 30.56° C | 16% | 1009.5 hPa | 0 mm | - | 936 W/m² | - |
| 1777581386 | 31.11° C | 16% | 1009.5 hPa | 0 mm | - | 892 W/m² | - |
| 1777581081 | 31.67° C | 14% | 1009.8 hPa | 0 mm | - | 970 W/m² | - |
| 1777580780 | 30.56° C | 14% | 1009.6 hPa | 0 mm | - | 990 W/m² | - |
| 1777580477 | 30.56° C | 15% | 1009.9 hPa | 0 mm | - | 1028 W/m² | - |
| 1777580172 | 30.56° C | 16% | 1009.9 hPa | 0 mm | - | 976 W/m² | - |
| 1777579869 | 31.11° C | 16% | 1009.9 hPa | 0 mm | - | 967 W/m² | - |
| 1777579568 | 30.56° C | 16% | 1010 hPa | 0 mm | - | 971 W/m² | - |
| 1777579263 | 30.56° C | 16% | 1009.9 hPa | 0 mm | - | 973 W/m² | - |
| 1777578958 | 30° C | 16% | 1010.2 hPa | 0 mm | - | 981 W/m² | - |
| 1777578654 | 30.56° C | 17% | 1010.2 hPa | 0 mm | - | 995 W/m² | - |
| 1777578352 | 30.56° C | 16% | 1010.3 hPa | 0 mm | - | 975 W/m² | - |
| 1777578049 | 30° C | 16% | 1010.3 hPa | 0 mm | - | 1011 W/m² | - |
* Rain latest hour (hover to see other rain measurements)
** Current wind speed in m/s (hover to see current wind gust speed)